Location: Saluda
(35.2377°N, 82.3468°W)
Time: 05:16:49
(UTC+00:00)

Vanguard 2 Rocket - Pass Details

Date: 11 October 2022
Orbit: 555 x 3321 km, 32.9° (Epoch: 04 December)

Event Time Altitude Azimuth Distance (km) Brightness Sun altitude
Rises 20:48:41 0° 177° (S) 6,520 11.6 24.4°
Reaches altitude 10° 20:57:03 10° 154° (SSE) 5,982 11.2 22.9°
Maximum altitude 21:04:20 13° 131° (SE) 5,929 10.9 21.6°
Drops below altitude 10° 21:11:50 10° 109° (ESE) 6,272 10.8 20.2°
Sets 21:20:54 0° 87° (E) 7,118 10.9 18.5°
